Regional Weather Roundup
Issued by NWS

Home | Current Version | Previous Version | Graphics & Text | Print | Product List | Glossary On
Versions: 1 2 3 4 5 6 7 8 9 10 11 12 13 14 15 16 17 18 19 20 21 22 23 24 25 26 27 28 29 30 31 32 33 34 35 36 37 38 39 40 41 42 43 44 45 46 47 48 49 50
000
ASUS43 KLMK 012110
RWRKY
KENTUCKY REGIONAL WEATHER ROUNDUP
NATIONAL WEATHER SERVICE LOUISVILLE KY
500 PM EDT WED APR 01 2015

NOTE "FAIR" INDICATES FEW OR NO CLOUDS BELOW 12,000 FEET
WITH NO SIGNIFICANT WEATHER AND/OR OBSTRUCTIONS TO VISIBILITY.

KYZ001>023-026-027-061>063-070>075-012200-
WESTERN AND SOUTH CENTRAL KENTUCKY

CITY           SKY/WX    TMP DP  RH WIND       PRES   REMARKS
PADUCAH        SUNNY     77  37  23 S12G17    29.98F
HENDERSON      MOSUNNY   72  39  30 SE8       30.01S
OWENSBORO      MOSUNNY   73  38  28 S9        30.02F
HOPKINSVILLE   SUNNY     73  37  26 E12       30.01F
BOWLING GREEN  SUNNY     71  34  25 SE8       30.05F
GLASGOW        MOSUNNY   70  31  24 E9        30.06F
$$

KYZ024-025-028>034-038-045-046-053-012200-
NORTH CENTRAL KENTUCKY

CITY           SKY/WX    TMP DP  RH WIND       PRES   REMARKS
LOUISVILLE/SDF PTSUNNY   70  32  24 E8        30.07F
LOUISVILLE/LOU MOSUNNY   68  32  26 E8        30.07F
FORT KNOX      SUNNY     69  32  25 SE9       30.05F HAZE
$$

KYZ035>037-039>044-047>052-055>060-089>105-012200-
NORTHEAST KENTUCKY

CITY           SKY/WX    TMP DP  RH WIND       PRES   REMARKS
LEXINGTON      SUNNY     65  25  22 E8        30.09F
COVINGTON      MOSUNNY   66  30  26 SE6       30.09F
FRANKFORT      SUNNY     65  29  25 E9        30.08F
$$

KYZ054-064>069-076>088-106>120-012200-
SOUTHEAST KENTUCKY

CITY           SKY/WX    TMP DP  RH WIND       PRES   REMARKS
JACKSON        SUNNY     66  19  16 VRB5      30.10F
LONDON         SUNNY     70  16  12 NE6       30.09F
SOMERSET       FAIR      68  21  17 E3        30.09F
MIDDLESBORO    SUNNY     70  16  12 CALM      30.08F
MONTICELLO     CLEAR     72  29  20 N7        30.10F
$$




USA.gov is the U.S. government's official web portal to all federal, state and local government web resources and services.